STARLINK-31083, 58670

Orbit data source: Space-Track

STARLINK-31083, 58670 is a payload satellite owned by SpaceX/Seattle (US) in LEO that was launched on Fri, 29 Dec 2023 UTC via an FALCON 9 launch vehicle from the Air Force Eastern Test Range (AFETR). Payload-class satellites include a variety of spacecraft equipped with specific instruments for various scientific and technological missions. These include communications satellites like Starlink; space stations such as the ISS; scientific satellites like the Hubble; Earth observation satellites from companies like Planet Labs, Umbra, and HawkEye 360; GPS; miniature CubeSats for education and research; and military/defense satellites.

Loading next visibility...
Identifier
58670, 2023-211D
Orbit
LEO
Country
Flag of USUS
Related business
Manufacturer
SpaceX/Seattle
Mission
Operational Commercial Communications
Bus & Motor
STARLINK V2M, Unknown motor
Mass
730 kg wet, ~700 kg dry
Launch date (UTC)
2023-12-29 (2 years ago)
Launch vehicle
FALCON 9
Launch site
Air Force Eastern Test Range (AFETR)
Object type
Payload
Rocket body
Debris
Shape & HBR
Box + 2 Pan, 17.7 m
Radar Cross Section
33.884 m², Large (>1 m²)

Expand to show TLE details & history
Last TLE update: 2 days ago

TLE from 2 days ago
0 STARLINK-31083
1 58670U 23211D   26171.44405735  .00005977  00000-0  22643-3 0  9992
2 58670  43.0005 224.6280 0001212 255.6636 104.4082 15.27598094138183
Epoch: 2026-06-20T10:39Z
TLE epoch observation values (Epoch: 2026-06-20T10:39:26.555Z)
Latitude
0.00006°
Longitude
156.10882°
Altitude
482.977 km
Speed
7.626 km/s
True Right ascension
14h 58m 30s
True Declination
0° 00' 00"
Sunlit
Object was in full shadow at epoch
Visualization orbit readout
Latitude
Unknown
Longitude
Unknown
Altitude
Unknown
Speed
Unknown
Apparent Right ascension
Unknown
Apparent Declination
Unknown
Sunlit
N/A
Visualization observer readout
Local Sidereal Time
21:27:22
Azimuth
Unknown
Elevation
Unknown
Doppler factor
Unknown
Orbital elements
Apogee altitude
485.772 km
Perigee altitude
484.108 km
Semi-major axis
6,863.077 km
Eccentricity
0.00012
Inclination
43.0005°
RAAN
224.628°
Arg. of periapsis
255.6636°
True anomaly
104.42165°
Mean anomaly
104.4082°
Eccentric anomaly
104.41493°
Mean motion
3.81738 °/min
Orbital period
94.31 mins
BSTAR
0.00022643
Loading maneuver chart data...
Computing Atmospheric mass density...
Loading historical data...
Loading historical data...
Loading historical data...
Loading historical data...
Loading historical data...
Loading historical data...
Loading historical data...

Documentation

Showing up to 5 results
|